User: anonymous   Login
Location: Unspecified
(0.0000°N, 0.0000°E)
Time: 11:46:44
(UTC+00:00)
Language:

UNSW-ECO - Orbit

View from above orbital plane
View from above orbital plane
View from above satellite
View from above satellite

Ground track
Ground track

The orbit data is extracted from the following two-line orbital elements,

1 42721U 98067MA  18168.92152676  .00104612  00000-0  38509-3 0  9990
2 42721  51.6284 338.9129 0005975 255.0915 104.9428 15.87412104 60931
Epoch (UTC): 17 June 2018 22:06:59
Eccentricity: 0.0005975
inclination: 51.6284°
perigee height: 305 km
apogee height: 313 km
right ascension of ascending node: 338.9129°
argument of perigee: 255.0915°
revolutions per day: 15.87412104
mean anomaly at epoch: 104.9428°
orbit number at epoch: 6093

The dashed part of the orbit path shows where the satellite is in the earth's shadow,  

DLR